Showing default

KINEIS-1D, 60082

Orbit data source: Space-Track

KINEIS-1D, 60082 is a French payload satellite in SSO that was launched on Thu, 20 Jun 2024 UTC via an ELECTRON launch vehicle from the Rocket Lab Launch Complex (RLLC). Payload-class satellites include a variety of spacecraft equipped with specific instruments for various scientific and technological missions. These include communications satellites like Starlink; space stations such as the ISS; scientific satellites like the Hubble; Earth observation satellites from companies like Planet Labs, Umbra, and HawkEye 360; GPS; miniature CubeSats for education and research; and military/defense satellites.

Loading next visibility...
Identifier
60082, 2024-114D
Orbit
SSO
Last TLE update
2 days ago
Origin
Manufacturer
KINEIS
Mission
Operational Commercial Communications
Bus & Motor
CUBESAT 16U, Unknown motor
Mass
28 kg wet, 28 kg dry
Launch date (UTC)
2024-06-20 (10 months ago)
Launch vehicle
ELECTRON
Launch site
Rocket Lab Launch Complex (RLLC)
Object type
Payload
Rocket body
Debris
Shape & HBR
Box + 2 Pan + 1 Ant, 1.6 m
Radar Cross Section
0.229 m², Medium (>0.1 m² and < 1m²)

Expand to show TLE details & history

TLE from 2 days ago
0 KINEIS-1D
1 60082U 24114D   25119.14454147  .00001480  00000-0  22491-3 0  9990
2 60082  98.0133 138.3928 0003028  88.2118 271.9438 14.75510626 46053
Epoch: 2025-04-29T03:28Z
Definitive object data (Epoch: 2025-04-29T03:28:08.382Z)
Latitude
-0.00005°
Longitude
-130.99054°
Altitude
646.471 km
Speed
7.535 km/s
True Right ascension
09h 13m 34s
True Declination
0° 00' 00"
Sunlit
Object was in daylight at TLE epoch
Visualization TLE readout
Latitude
-54.00174°
Longitude
-118.07483°
Altitude
666.039 km
Speed
7.522 km/s
Apparent Right ascension
15h 06m 08s
Apparent Declination
-68° 20' 42"
Sunlit
Object is in full shadow
Visualization observer readout
Local Sidereal Time
06:46:01
Azimuth
152.356° SSE
Elevation
-49.362°
Doppler factor
1
Orbital elements
Apogee altitude
642.708 km
Perigee altitude
638.458 km
Semi-major axis
7,018.72 km
Eccentricity
0.0003028
Inclination
98.0133°
RAAN
138.3928°
Arg. of periapsis
88.2118°
True anomaly
271.90912°
Mean anomaly
271.9438°
Eccentric anomaly
271.92646°
Mean motion
3.6911 °/min
BSTAR
0.00022491
Orbital period
97.53 mins
Loading maneuver chart data...
Loading SW <> Apogee altitude chart data...
Loading historical data...
Loading historical data...
Loading historical data...
Loading historical data...
Loading historical data...
Loading historical data...
Loading historical data...

KINEIS-1D Visibility forecast

Observer location: undefined°, undefined°

Span
Click to sort rows by Start time (UTC) header in descending order
Start Az.
Max El. time (UTC)
Max El. Az.
Max El.
End time (UTC)
End Az.
7 mins2025-05-01 01:09:55.120Z161.886° S2025-05-01 01:12:55.120Z140.262° SSE43.242°2025-05-01 01:16:55.120Z350.035° N
4 mins2025-05-01 13:02:55.120Z71.01° E2025-05-01 13:03:55.120Z86.743° E15.831°2025-05-01 13:06:55.120Z130.813° SE
7 mins2025-05-01 14:37:55.120Z352.588° N2025-05-01 14:40:55.120Z292.149° WNW33.899°2025-05-01 14:44:55.120Z218.856° SW
|